EST,Max TemperatureF,Mean TemperatureF,Min TemperatureF,Max Dew PointF,MeanDew PointF,Min DewpointF,Max Humidity, Mean Humidity, Min Humidity, Max Sea Level PressureIn, Mean Sea Level PressureIn, Min Sea Level PressureIn, Max VisibilityMiles, Mean VisibilityMiles, Min VisibilityMiles, Max Wind SpeedMPH, Mean Wind SpeedMPH, Max Gust SpeedMPH,PrecipitationIn, CloudCover, Events, WindDirDegrees
2013-11-1,68,64,62,64,61,55,97,89,77,29.83,29.69,29.56,10,6,2,29,18,45,0.09,7,Rain,211
2013-11-2,61,56,52,57,52,49,93,85,69,29.72,29.66,29.60,10,10,4,12,2,16,0.06,3,Rain,172
2013-11-3,55,50,44,49,41,28,93,79,52,30.31,30.00,29.72,10,7,2,21,14,31,0.06,7,Rain,9
2013-11-4,44,37,30,27,25,23,82,56,45,30.69,30.57,30.35,10,10,10,17,11,28,0.00,6,,25
2013-11-5,48,40,32,34,31,28,89,72,54,30.69,30.63,30.53,10,10,10,7,1,,0.00,4,,341
2013-11-6,57,46,34,54,47,31,94,87,66,30.52,30.29,30.09,10,10,10,13,4,20,0.00,3,,189
2013-11-7,63,54,46,61,54,40,100,91,79,30.07,29.78,29.68,10,6,2,21,11,36,1.04,8,Rain,247
2013-11-8,50,44,37,37,26,21,71,52,41,30.08,29.91,29.78,10,10,10,15,11,25,0.00,2,,292
2013-11-9,45,40,34,31,24,19,79,57,36,30.20,30.13,30.08,10,10,10,13,7,21,0.00,1,,288
2013-11-10,57,47,37,45,39,32,79,67,47,30.04,29.85,29.73,10,10,10,16,6,22,0.09,6,Rain,249
2013-11-11,54,47,41,43,31,25,71,54,35,30.07,30.00,29.87,10,10,10,21,12,29,0.00,3,,262
2013-11-12,55,44,32,43,31,21,93,76,53,30.14,30.01,29.88,10,6,0,21,13,31,0.23,7,Fog-Rain-Snow,321
2013-11-13,37,34,30,23,18,11,69,55,39,30.26,30.20,30.14,10,10,10,15,10,28,0.00,2,,314
2013-11-14,50,39,28,33,26,17,76,55,29,30.19,30.12,30.06,10,10,10,20,7,29,0.00,0,,241
2013-11-15,60,52,44,48,39,28,93,66,44,30.22,30.18,30.14,10,10,8,23,10,28,0.00,0,,229
2013-11-16,57,44,32,44,34,28,93,70,40,30.33,30.28,30.21,10,10,9,8,3,,0.00,2,,231
2013-11-17,59,46,32,56,43,30,100,90,51,30.32,30.19,29.89,10,3,0,12,2,20,0.25,7,Fog-Rain,144
2013-11-18,63,56,48,61,53,38,100,86,56,29.85,29.66,29.58,10,6,0,22,14,32,0.49,4,Fog-Rain,215
2013-11-19,48,42,37,35,24,20,65,48,39,30.24,29.93,29.67,10,10,10,18,10,31,0.00,2,,314
2013-11-20,41,34,28,24,21,19,75,54,43,30.58,30.46,30.25,10,10,10,18,12,29,0.00,3,,352
2013-11-21,48,36,24,31,26,20,88,71,46,30.61,30.53,30.40,10,10,10,9,2,,0.00,0,,216
2013-11-22,54,45,36,52,46,31,100,90,80,30.37,30.08,29.82,10,7,2,16,3,21,0.20,8,Rain,215
2013-11-23,51,44,33,47,30,13,93,58,32,29.86,29.80,29.77,10,10,6,16,8,26,0.00,3,,290
2013-11-24,30,26,23,15,3,-6,52,37,24,30.14,29.91,29.76,10,10,10,22,14,39,0.00,1,,296
2013-11-25,39,26,19,30,1,-7,70,39,19,30.38,30.32,30.16,10,10,10,15,9,22,0.00,0,,285
2013-11-26,48,44,41,46,35,28,93,72,51,30.33,30.24,30.04,10,10,7,16,10,20,0.10,6,Rain,205
2013-11-27,60,51,42,59,53,38,100,95,81,30.02,29.40,29.19,10,4,1,29,12,48,1.82,8,Rain,185
2013-11-28,39,33,27,34,17,8,79,51,36,30.43,30.05,29.50,10,10,10,18,13,31,0.00,2,,281
2013-11-29,36,31,26,16,13,9,54,47,40,30.69,30.56,30.44,10,10,10,10,7,21,0.00,3,,318
2013-11-30,37,28,19,26,18,10,81,60,43,30.75,30.65,30.47,10,10,10,7,4,,0.00,2,,97